Regional Weather Roundup
Issued by NWS Little Rock, AR

Home | Current Version | Previous Version | Graphics & Text | Print | Product List | Glossary On
Versions: 1 2 3 4 5 6 7 8 9 10 11 12 13 14 15 16 17 18 19 20 21 22 23 24 25 26 27 28 29 30 31 32
000
ASUS44 KLZK 190705
RWRLZK

WEATHER ROUNDUP FOR ARKANSAS
NATIONAL WEATHER SERVICE LITTLE ROCK AR
200 AM CDT THU APR 19 2018

NOTE: "FAIR" INDICATES FEW OR NO CLOUDS BELOW 12,000 FEET WITH NO
SIGNIFICANT WEATHER AND/OR OBSTRUCTIONS TO VISIBILITY.

ARZ001-003-010-029-190800-
NORTHWEST ARKANSAS

CITY           SKY/WX    TMP DP  RH WIND       PRES   REMARKS
FAYETTEVILLE   CLEAR     43  29  57 N6        30.22R
FORT SMITH     CLEAR     48  32  53 W6        30.22S
HARRISON       CLEAR     41  29  62 NW8       30.18S
BENTONVILLE    CLEAR     42  29  59 N10       30.24R
ROGERS         CLEAR     42  29  59 N13       30.23R
SILOAM SPGS    CLEAR     39  30  70 N9        30.24R
HIGHFILL       CLEAR     41  30  65 N12       30.23R
$$

ARZ004-005-016-190800-
NORTH CENTRAL ARKANSAS

CITY           SKY/WX    TMP DP  RH WIND       PRES   REMARKS
BATESVILLE     CLEAR     47  28  47 NW8       30.17S
FLIPPIN        CLEAR     44  29  55 NW7       30.19S
MTN HOME       CLEAR     42  30  62 VRB6      30.16F
$$

ARZ040-041-190800-
WEST CENTRAL ARKANSAS

CITY           SKY/WX    TMP DP  RH WIND       PRES   REMARKS
MENA           CLEAR     54  32  43 N5        30.21R
MOUNT IDA      CLEAR     52  33  48 NW5       30.17R
$$

ARZ009-017-025-026-028-190800-
NORTHEAST ARKANSAS

CITY           SKY/WX    TMP DP  RH WIND       PRES   REMARKS
CORNING        FAIR      45  30  57 NW9       30.15S
JONESBORO      FAIR      47  31  53 NW9       30.16R
NEWPORT        FAIR      47  29  49 NW18      30.17S
WALNUT RIDGE   FAIR      45  28  51 NW13      30.16R
BLYTHEVILLE    FAIR      48  33  56 NW24G33   30.12R
$$

ARZ022-023-033-042-044-190800-
CENTRAL ARKANSAS

CITY           SKY/WX    TMP DP  RH WIND       PRES   REMARKS
LITTLE ROCK    FAIR      52  31  44 N17       30.17R
N LITTLE ROCK    N/A     50  33  51 N6        30.13R
JACKSONVILLE   CLEAR     52  30  43 N8        30.16R
CONWAY           N/A     52  34  50 N8        30.16S
SEARCY         FAIR      51  33  50 N14       30.17
HOT SPRINGS    CLEAR     56  30  37 N8G21     30.18R
RUSSELLVILLE   CLEAR     51  29  42 NW7       30.18S
CLINTON        FAIR      48  28  46 VRB7      30.18S
$$

ARZ036-190800-
EAST ARKANSAS

CITY           SKY/WX    TMP DP  RH WIND       PRES   REMARKS
WEST MEMPHIS   FAIR      52  36  54 N14G28    30.12R
$$

ARZ050-053-066-070-073-190800-
SOUTHWEST ARKANSAS

CITY           SKY/WX    TMP DP  RH WIND       PRES   REMARKS
ARKADELPHIA    FAIR      58  35  42 NW9       30.17R
CAMDEN         FAIR      57  34  41 NW6       30.13R
TEXARKANA      CLEAR     58  35  42 N9        30.18R
EL DORADO      FAIR      56  41  57 NW9       30.13R
DE QUEEN       CLEAR     55  34  45 N5        30.19R
$$

ARZ056-057-069-190800-
SOUTHEAST ARKANSAS

CITY           SKY/WX    TMP DP  RH WIND       PRES   REMARKS
PINE BLUFF     FAIR      57  36  45 N16G25    30.13R
STUTTGART      FAIR      54  33  45 NW24G30   30.14R
MONTICELLO     FAIR      58  40  51 NW7       30.10R

$$






USA.gov is the U.S. government's official web portal to all federal, state and local government web resources and services.